CW5391 Weather Reports


time (UTC)temp
C
wind
direction
speed
KPH
gust
KPH
rain 1hr
cm
rain 24hr
cm
rain mn
cm
humidity
%
barometer
mb
20260901081323 18 52 0.0 0.0 0.00 0.00 0.00 92 1012.9
20260901080816 18 52 0.0 0.0 0.00 0.00 0.00 92 1012.9
20260901080349 18 52 0.0 0.0 0.00 0.00 0.00 92 1012.9
20260901075816 18 52 0.0 0.0 0.00 0.00 0.00 92 1013.2
20260901075318 18 52 0.0 1.6 0.00 0.00 0.00 92 1013.2
20260901074831 18 52 0.0 3.2 0.00 0.00 0.00 92 1013.2
20260901074320 18 52 0.0 3.2 0.00 0.00 0.00 92 1013.2
20260901073830 18 82 0.0 3.2 0.00 0.00 0.00 92 1013.2
20260901073328 18 82 0.0 1.6 0.00 0.00 0.00 92 1013.2
20260901072819 18 82 0.0 1.6 0.00 0.00 0.00 92 1012.9
20260901072330 18 82 0.0 1.6 0.00 0.00 0.00 92 1012.9
20260901071841 18 82 0.0 1.6 0.00 0.00 0.00 92 1012.9
20260901071329 18 82 0.0 3.2 0.00 0.00 0.00 91 1012.7
20260901070813 18 48 0.0 3.2 0.00 0.00 0.00 91 1012.7
20260901070346 18 81 0.0 1.6 0.00 0.00 0.00 92 1012.7
20260901065828 18 123 0.0 0.0 0.00 0.00 0.00 92 1013.1
20260901065317 18 123 0.0 1.6 0.00 0.00 0.00 92 1013.1
20260901064819 18 123 0.0 1.6 0.00 0.00 0.00 92 1013.1
20260901064352 18 123 0.0 4.8 0.00 0.00 0.00 92 1013.5
20260901063835 18 123 0.0 3.2 0.00 0.00 0.00 92 1013.5
20260901063317 18 98 0.0 1.6 0.00 0.00 0.00 92 1013.5
20260901062826 18 98 0.0 0.0 0.00 0.00 0.00 92 1013.8
20260901062336 18 98 0.0 0.0 0.00 0.00 0.00 92 1013.8
20260901061848 18 98 0.0 1.6 0.00 0.00 0.00 92 1013.8
20260901061337 18 98 0.0 1.6 0.00 0.00 0.00 92 1013.9
20260901060821 18 98 0.0 1.6 0.00 0.00 0.00 91 1013.9
20260901060352 18 98 0.0 0.0 0.00 0.00 0.00 91 1013.9
20260901055824 18 98 0.0 0.0 0.00 0.00 0.00 91 1013.9
20260901055330 18 98 0.0 0.0 0.00 0.00 0.00 91 1013.9
20260901054831 18 98 0.0 0.0 0.00 0.00 0.00 91 1013.9
20260901054318 18 98 0.0 0.0 0.00 0.00 0.00 91 1014.0
20260901053826 18 98 0.0 0.0 0.00 0.00 0.00 91 1014.0
20260901053340 18 98 0.0 1.6 0.00 0.00 0.00 91 1014.0
20260901052822 18 98 0.0 1.6 0.00 0.00 0.00 91 1014.2
20260901052327 18 98 0.0 0.0 0.00 0.00 0.00 91 1014.2
20260901051825 18 98 0.0 0.0 0.00 0.00 0.00 91 1014.2
20260901051336 18 98 0.0 1.6 0.00 0.00 0.00 90 1014.3
20260901050828 18 98 0.0 1.6 0.00 0.00 0.00 90 1014.3
20260901050342 18 98 0.0 0.0 0.00 0.00 0.00 90 1014.3
20260901045813 18 98 0.0 0.0 0.00 0.00 0.00 90 1014.3
20260901045318 18 98 0.0 0.0 0.00 0.00 0.00 90 1014.3
20260901044817 18 98 0.0 0.0 0.00 0.00 0.00 90 1014.3
20260901044334 18 98 0.0 0.0 0.00 0.00 0.00 90 1014.3
20260901043814 18 98 0.0 0.0 0.00 0.00 0.00 90 1014.3
20260901043326 18 98 0.0 0.0 0.00 0.00 0.00 89 1014.3
20260901042832 18 98 0.0 0.0 0.00 0.00 0.00 89 1014.2
20260901042343 18 98 0.0 1.6 0.00 0.00 0.00 89 1014.2
20260901041836 18 98 0.0 1.6 0.00 0.00 0.00 88 1014.2
20260901041332 18 98 0.0 0.0 0.00 0.00 0.00 88 1013.8
20260901040831 18 123 0.0 1.6 0.00 0.00 0.00 88 1013.8
20260901040335 18 123 0.0 1.6 0.00 0.00 0.00 88 1013.8
20260901035826 18 94 0.0 0.0 0.00 0.00 0.00 87 1014.1
20260901035321 18 94 0.0 1.6 0.00 0.00 0.00 88 1014.1
20260901034821 18 94 0.0 0.0 0.00 0.00 0.00 87 1014.1
20260901034340 18 131 0.0 1.6 0.00 0.00 0.00 87 1014.0
20260901033823 18 131 0.0 4.8 0.00 0.00 0.00 87 1014.0
20260901033337 18 132 1.6 4.8 0.00 0.00 0.00 87 1014.0
20260901032830 18 119 0.0 4.8 0.00 0.00 0.00 87 1014.3
20260901032337 18 153 0.0 1.6 0.00 0.00 0.00 87 1014.3
20260901031816 18 147 0.0 3.2 0.00 0.00 0.00 87 1014.3
20260901031319 18 190 0.0 6.4 0.00 0.00 0.00 88 1014.2
20260901030831 19 159 1.6 6.4 0.00 0.00 0.00 87 1014.2
20260901030338 18 120 1.6 4.8 0.00 0.00 0.00 87 1014.2
20260901025835 18 157 1.6 4.8 0.00 0.00 0.00 87 1014.3
20260901025316 18 169 1.6 4.8 0.00 0.00 0.00 88 1014.3
20260901024824 18 81 1.6 3.2 0.00 0.00 0.00 89 1014.3
20260901024331 18 163 0.0 3.2 0.00 0.00 0.00 89 1014.4
20260901023900 18 131 0.0 1.6 0.00 0.00 0.00 89 1014.4
20260901023321 18 131 0.0 1.6 0.00 0.00 0.00 89 1014.4
20260901022831 18 131 0.0 0.0 0.00 0.00 0.00 89 1014.6
20260901022316 19 131 0.0 0.0 0.00 0.00 0.00 88 1014.6
20260901021820 19 131 0.0 1.6 0.00 0.00 0.00 88 1014.6
20260901021340 19 131 0.0 1.6 0.00 0.00 0.00 88 1014.6
20260901020820 19 131 0.0 1.6 0.00 0.00 0.00 88 1014.6
20260901020340 19 159 0.0 0.0 0.00 0.00 0.00 88 1014.6
20260901015832 19 159 0.0 0.0 0.00 0.00 0.00 88 1014.5
20260901015358 19 159 0.0 0.0 0.00 0.00 0.00 88 1014.5
20260901014832 19 159 0.0 0.0 0.00 0.00 0.00 87 1014.5
20260901014315 19 159 0.0 3.2 0.00 0.00 0.00 87 1014.3
20260901013827 19 159 0.0 3.2 0.00 0.00 0.00 87 1014.3
20260901013336 19 117 0.0 3.2 0.00 0.00 0.00 87 1014.3
20260901012823 19 161 0.0 1.6 0.00 0.00 0.00 87 1014.3
20260901012356 19 132 0.0 1.6 0.00 0.00 0.00 86 1014.3
20260901011815 19 118 0.0 0.0 0.00 0.00 0.00 86 1014.3
20260901011350 19 99 0.0 0.0 0.00 0.00 0.00 85 1014.3
20260901010830 19 99 0.0 1.6 0.00 0.00 0.00 85 1014.3
20260901010322 19 99 0.0 1.6 0.00 0.00 0.00 85 1014.3
20260901005835 19 99 0.0 3.2 0.00 0.00 0.00 85 1014.4
20260901005322 20 99 0.0 3.2 0.00 0.00 0.00 85 1014.4
20260901004823 20 99 0.0 3.2 0.00 0.00 0.00 84 1014.4
20260901004318 20 99 0.0 3.2 0.00 0.00 0.00 84 1014.3
20260901003851 20 99 0.0 3.2 0.00 0.00 0.00 84 1014.3
20260901003316 20 99 1.6 3.2 0.00 0.00 0.00 83 1014.3
20260901002826 20 108 0.0 3.2 0.00 0.00 0.00 83 1014.3
20260901002319 20 108 0.0 3.2 0.00 0.00 0.00 83 1014.3
20260901001829 20 108 0.0 4.8 0.00 0.00 0.00 82 1014.3
20260901001319 20 108 1.6 4.8 0.00 0.00 0.00 82 1014.3
20260901000844 20 133 0.0 8.0 0.00 0.00 0.00 82 1014.3
20260901000328 20 76 1.6 6.4 0.00 0.00 0.00 81 1014.3
20260831235833 20 132 1.6 8.0 0.00 0.00 0.00 81 1014.3
20260831235330 20 163 1.6 8.0 0.00 0.00 0.00 81 1014.3
20260831234822 20 128 3.2 8.0 0.00 0.00 0.00 81 1014.3
20260831234318 20 134 3.2 4.8 0.00 0.00 0.00 81 1014.2
20260831233848 20 144 1.6 4.8 0.00 0.00 0.00 80 1014.2
20260831233359 20 141 0.0 6.4 0.00 0.00 0.00 80 1014.2
20260831232827 20 128 1.6 6.4 0.00 0.00 0.00 80 1014.3
20260831232357 20 161 1.6 6.4 0.00 0.00 0.00 80 1014.3
20260831231847 20 123 1.6 3.2 0.00 0.00 0.00 81 1014.3
20260831231335 20 146 0.0 3.2 0.00 0.00 0.00 81 1014.4
20260831230846 20 123 0.0 1.6 0.00 0.00 0.00 80 1014.4
20260831230323 20 123 0.0 0.0 0.00 0.00 0.00 80 1014.4
20260831225815 21 123 0.0 0.0 0.00 0.00 0.00 79 1014.7
20260831225339 21 123 0.0 0.0 0.00 0.00 0.00 79 1014.7
20260831224818 21 123 0.0 0.0 0.00 0.00 0.00 78 1014.7
20260831224326 21 123 0.0 0.0 0.00 0.00 0.00 79 1014.7
20260831223815 21 123 0.0 0.0 0.00 0.00 0.00 79 1014.7
20260831223349 21 123 0.0 0.0 0.00 0.00 0.00 79 1014.7
20260831222837 21 123 0.0 0.0 0.00 0.00 0.00 77 1014.7
20260831222326 21 123 0.0 0.0 0.00 0.00 0.00 77 1014.7
20260831221820 21 123 0.0 0.0 0.00 0.00 0.00 76 1014.7
20260831221339 21 123 0.0 0.0 0.00 0.00 0.00 76 1014.7
20260831220832 22 123 0.0 0.0 0.00 0.00 0.00 75 1014.7
20260831220317 22 123 0.0 0.0 0.00 0.00 0.00 74 1014.7
20260831215828 22 123 0.0 0.0 0.00 0.00 0.00 75 1014.7
20260831215334 22 123 0.0 0.0 0.00 0.00 0.00 74 1014.7
20260831214813 22 123 0.0 0.0 0.00 0.00 0.00 74 1014.7
20260831214322 22 123 0.0 1.6 0.00 0.00 0.00 73 1014.7
20260831213830 22 132 0.0 1.6 0.00 0.00 0.00 76 1014.7
20260831213338 22 132 0.0 1.6 0.00 0.00 0.00 75 1014.7
20260831212822 22 132 0.0 0.0 0.00 0.00 0.00 72 1014.6
20260831212318 22 136 0.0 1.6 0.00 0.00 0.00 74 1014.6
20260831211811 22 155 0.0 0.0 0.00 0.00 0.00 74 1014.6
20260831211327 23 101 0.0 0.0 0.00 0.00 0.00 72 1014.8
20260831210836 23 101 0.0 1.6 0.00 0.00 0.00 72 1014.8
20260831210331 23 136 0.0 1.6 0.00 0.00 0.00 72 1014.8
20260831205821 23 142 0.0 0.0 0.00 0.00 0.00 71 1014.8
20260831205330 23 129 0.0 0.0 0.00 0.00 0.00 70 1014.8
20260831204843 23 129 0.0 0.0 0.00 0.00 0.00 70 1014.8
20260831204327 23 140 0.0 0.0 0.00 0.00 0.00 71 1014.8
20260831203859 23 140 0.0 0.0 0.00 0.00 0.00 66 1014.8
20260831203318 24 140 0.0 0.0 0.00 0.00 0.00 66 1014.8
20260831202858 25 140 0.0 3.2 0.00 0.00 0.00 63 1015.0
20260831202336 25 143 0.0 4.8 0.00 0.00 0.00 64 1015.0
20260831201823 25 200 0.0 4.8 0.00 0.00 0.00 59 1015.0
20260831201346 25 246 1.6 4.8 0.00 0.00 0.00 56 1015.1
20260831200831 25 273 1.6 6.4 0.00 0.00 0.00 61 1015.1
20260831200317 25 5 1.6 6.4 0.00 0.00 0.00 58 1015.1
20260831195845 26 130 0.0 6.4 0.00 0.00 0.00 55 1015.2
20260831195321 26 147 0.0 4.8 0.00 0.00 0.00 54 1015.2
20260831194813 26 13 0.0 4.8 0.00 0.00 0.00 56 1015.2
20260831194336 25 194 0.0 4.8 0.00 0.00 0.00 54 1015.4
20260831193819 25 225 0.0 6.4 0.00 0.00 0.00 58 1015.4
20260831193333 25 302 1.6 6.4 0.00 0.00 0.00 58 1015.4
20260831192812 25 277 1.6 8.0 0.00 0.00 0.00 58 1015.4
20260831192345 25 126 1.6 8.0 0.00 0.00 0.00 61 1015.4
20260831191812 25 169 1.6 6.4 0.00 0.00 0.00 61 1015.4
20260831191358 25 113 1.6 6.4 0.00 0.00 0.00 60 1015.5
20260831190831 25 182 1.6 4.8 0.00 0.00 0.00 59 1015.5
20260831190315 25 360 1.6 8.0 0.00 0.00 0.00 62 1015.5
20260831185820 25 22 3.2 8.0 0.00 0.00 0.00 59 1015.5
20260831185349 25 182 1.6 6.4 0.00 0.00 0.00 62 1015.5
20260831184836 25 109 0.0 3.2 0.00 0.00 0.00 63 1015.5
20260831184314 25 128 1.6 4.8 0.00 0.00 0.00 69 1015.8
20260831183827 25 339 1.6 4.8 0.00 0.00 0.00 69 1015.8
20260831183334 25 34 1.6 4.8 0.00 0.00 0.00 65 1015.8
20260831182822 25 196 1.6 4.8 0.00 0.00 0.00 65 1016.0
20260831182327 25 294 1.6 6.4 0.00 0.00 0.00 66 1016.0
20260831181831 24 360 1.6 6.4 0.00 0.00 0.00 66 1016.0
20260831181322 24 250 3.2 8.0 0.00 0.00 0.00 73 1016.1
20260831180818 24 294 3.2 8.0 0.00 0.00 0.00 73 1016.1
20260831180313 24 61 0.0 6.4 0.00 0.00 0.00 69 1016.1
20260831175821 24 61 1.6 6.4 0.00 0.00 0.00 66 1016.2
20260831175320 24 288 1.6 4.8 0.00 0.00 0.00 71 1016.2
20260831174830 23 113 0.0 4.8 0.00 0.00 0.00 70 1016.2
20260831174338 23 171 1.6 8.0 0.00 0.00 0.00 69 1016.4
20260831173823 23 269 1.6 8.0 0.00 0.00 0.00 70 1016.4
20260831173335 23 140 3.2 8.0 0.00 0.00 0.00 72 1016.4
20260831172830 23 136 1.6 6.4 0.00 0.00 0.00 72 1016.4
20260831172312 23 151 1.6 3.2 0.00 0.00 0.00 70 1016.4
20260831171845 23 339 0.0 8.0 0.00 0.00 0.00 71 1016.4
20260831171318 23 100 1.6 8.0 0.00 0.00 0.00 69 1016.5
20260831170826 23 314 1.6 8.0 0.00 0.00 0.00 71 1016.5
20260831170322 23 36 1.6 3.2 0.00 0.00 0.00 71 1016.5
20260831165837 23 325 0.0 3.2 0.00 0.00 0.00 70 1016.6
20260831165318 23 281 0.0 3.2 0.00 0.00 0.00 70 1016.6
20260831164831 23 282 1.6 3.2 0.00 0.00 0.00 71 1016.6
20260831164340 23 275 0.0 8.0 0.00 0.00 0.00 74 1017.0
20260831163856 23 191 3.2 9.7 0.00 0.00 0.00 69 1017.0
20260831163331 23 307 3.2 9.7 0.00 0.00 0.00 72 1017.0
20260831162821 23 313 3.2 8.0 0.00 0.00 0.00 74 1017.0
20260831162333 23 22 3.2 8.0 0.00 0.00 0.00 74 1017.0
20260831161824 23 5 3.2 6.4 0.00 0.00 0.00 74 1017.0
20260831161342 23 341 3.2 6.4 0.00 0.00 0.00 71 1017.1
20260831160818 23 183 1.6 4.8 0.00 0.00 0.00 73 1017.1
20260831160323 23 23 1.6 4.8 0.00 0.00 0.00 73 1017.1
20260831155840 22 344 1.6 6.4 0.00 0.00 0.00 77 1017.4
20260831155325 22 180 1.6 6.4 0.00 0.00 0.00 75 1017.4
20260831154828 22 311 3.2 6.4 0.00 0.00 0.00 75 1017.4
20260831154338 22 295 3.2 6.4 0.00 0.00 0.00 74 1017.4
20260831153819 22 344 1.6 4.8 0.00 0.00 0.00 76 1017.4
20260831153329 22 355 3.2 4.8 0.00 0.00 0.00 76 1017.4
20260831152823 21 355 0.0 4.8 0.00 0.00 0.00 76 1017.4
20260831152355 21 286 3.2 4.8 0.00 0.00 0.00 74 1017.4
20260831151839 22 308 3.2 9.7 0.00 0.00 0.00 75 1017.4
20260831151339 22 344 4.8 9.7 0.00 0.00 0.00 74 1017.3
20260831150839 22 5 4.8 8.0 0.00 0.00 0.00 77 1017.3
20260831150311 21 265 1.6 8.0 0.00 0.00 0.00 79 1017.3
20260831145849 21 304 1.6 6.4 0.00 0.00 0.00 78 1017.3
20260831145324 21 323 1.6 6.4 0.00 0.00 0.00 80 1017.3
20260831144830 21 185 3.2 6.4 0.00 0.00 0.00 78 1017.3
20260831144318 21 109 1.6 4.8 0.00 0.00 0.00 80 1017.4
20260831143831 21 203 1.6 4.8 0.00 0.00 0.00 80 1017.4
20260831143328 21 355 1.6 6.4 0.00 0.00 0.00 79 1017.4
20260831142827 20 123 1.6 6.4 0.00 0.00 0.00 79 1017.4
20260831142336 20 5 1.6 6.4 0.00 0.00 0.00 82 1017.4
20260831141827 20 308 1.6 6.4 0.00 0.00 0.00 83 1017.4
20260831141318 20 338 3.2 6.4 0.00 0.00 0.00 84 1017.5
20260831140817 19 25 3.2 8.0 0.00 0.00 0.00 85 1017.5
20260831140341 19 11 4.8 8.0 0.00 0.00 0.00 88 1017.5
20260831135836 19 20 1.6 6.4 0.00 0.00 0.00 89 1017.5
20260831135331 18 29 0.0 3.2 0.00 0.00 0.00 91 1017.5
20260831134820 17 29 0.0 3.2 0.00 0.00 0.00 94 1017.5
20260831134329 17 29 0.0 3.2 0.00 0.00 0.00 94 1017.5
20260831133837 17 29 0.0 3.2 0.00 0.00 0.00 95 1017.5
20260831133314 17 29 0.0 3.2 0.00 0.00 0.00 96 1017.5
20260831132858 17 29 0.0 1.6 0.00 0.00 0.00 96 1017.5
20260831132316 17 29 0.0 0.0 0.00 0.00 0.00 97 1017.5
20260831131826 17 29 0.0 4.8 0.00 0.00 0.00 97 1017.5
20260831131332 17 29 1.6 4.8 0.00 0.00 0.00 97 1017.5
20260831130815 17 312 0.0 3.2 0.00 0.00 0.00 97 1017.5
20260831130323 16 333 0.0 3.2 0.00 0.00 0.00 97 1017.5
20260831125827 16 333 1.6 3.2 0.00 0.00 0.00 97 1017.5
20260831125337 16 319 0.0 3.2 0.00 0.00 0.00 98 1017.5
20260831124828 16 306 1.6 3.2 0.00 0.00 0.00 97 1017.5
20260831124318 16 306 0.0 3.2 0.00 0.00 0.00 98 1017.5
20260831123834 16 213 0.0 0.0 0.00 0.00 0.00 98 1017.5
20260831123314 16 213 0.0 0.0 0.00 0.00 0.00 97 1017.5
20260831122819 16 213 0.0 0.0 0.00 0.00 0.00 97 1017.5
20260831122328 16 213 0.0 0.0 0.00 0.00 0.00 97 1017.5
20260831121840 16 213 0.0 0.0 0.00 0.00 0.00 97 1017.5
20260831121330 16 213 0.0 0.0 0.00 0.00 0.00 97 1017.5
20260831120823 16 213 0.0 0.0 0.00 0.00 0.00 97 1017.5
20260831120330 16 213 0.0 0.0 0.00 0.00 0.00 97 1017.5
20260831115819 16 219 0.0 0.0 0.00 0.00 0.00 97 1017.4
20260831115316 16 168 0.0 0.0 0.00 0.00 0.00 97 1017.4
20260831114901 16 168 0.0 0.0 0.00 0.00 0.00 97 1017.4
20260831114323 16 168 0.0 0.0 0.00 0.00 0.00 97 1017.4
20260831113830 16 168 0.0 0.0 0.00 0.00 0.00 98 1017.4
20260831113322 15 168 0.0 0.0 0.00 0.00 0.00 98 1017.4
20260831112830 15 168 0.0 0.0 0.00 0.00 0.00 97 1017.0
20260831112314 15 168 0.0 0.0 0.00 0.00 0.00 97 1017.0
20260831111836 15 168 0.0 0.0 0.00 0.00 0.00 97 1017.0
20260831111326 15 168 0.0 0.0 0.00 0.00 0.00 97 1017.0
20260831110831 15 168 0.0 0.0 0.00 0.00 0.00 97 1017.0
20260831110341 15 168 0.0 0.0 0.00 0.00 0.00 97 1017.0
20260831105827 15 168 0.0 0.0 0.00 0.00 0.00 97 1016.7
20260831105334 15 168 0.0 0.0 0.00 0.00 0.00 97 1016.7
20260831104844 15 168 0.0 0.0 0.00 0.00 0.00 97 1016.7
20260831104330 15 168 0.0 0.0 0.00 0.00 0.00 97 1016.5
20260831103838 15 168 0.0 0.0 0.00 0.00 0.00 97 1016.5
20260831103316 15 168 0.0 0.0 0.00 0.00 0.00 97 1016.5
20260831102825 15 168 0.0 0.0 0.00 0.00 0.00 97 1016.6
20260831102317 15 168 0.0 0.0 0.00 0.00 0.00 97 1016.6
20260831101812 15 168 0.0 0.0 0.00 0.00 0.00 96 1016.6
20260831101352 15 168 0.0 0.0 0.00 0.00 0.00 97 1016.5
20260831100812 15 168 0.0 0.0 0.00 0.00 0.00 97 1016.5
20260831100330 15 168 0.0 0.0 0.00 0.00 0.00 97 1016.5
20260831095824 15 168 0.0 0.0 0.00 0.00 0.00 97 1016.4
20260831095333 15 168 0.0 0.0 0.00 0.00 0.00 97 1016.4
20260831094841 15 168 0.0 0.0 0.00 0.00 0.00 97 1016.4
20260831094330 15 168 0.0 0.0 0.00 0.00 0.00 97 1016.4
20260831093839 15 90 0.0 0.0 0.00 0.00 0.00 96 1016.4
20260831093345 15 90 0.0 0.0 0.00 0.00 0.00 96 1016.4
20260831092816 15 90 0.0 0.0 0.00 0.00 0.00 96 1016.4
20260831092324 15 90 0.0 0.0 0.00 0.00 0.00 96 1016.4
20260831091817 15 90 0.0 0.0 0.00 0.00 0.00 96 1016.4
20260831091341 15 90 0.0 0.0 0.00 0.00 0.00 96 1016.4
20260831090832 15 90 0.0 0.0 0.00 0.00 0.00 96 1016.4
20260831090331 15 90 0.0 0.0 0.00 0.00 0.00 96 1016.4
20260831085816 15 90 0.0 0.0 0.00 0.00 0.00 96 1016.3
20260831085347 15 90 0.0 0.0 0.00 0.00 0.00 96 1016.3
20260831084818 15 90 0.0 0.0 0.00 0.00 0.00 96 1016.3
20260831084352 15 90 0.0 0.0 0.00 0.00 0.00 96 1016.0
20260831083837 15 90 0.0 0.0 0.00 0.00 0.00 96 1016.0
20260831083321 15 90 0.0 0.0 0.00 0.00 0.00 96 1016.0
20260831082827 15 90 0.0 0.0 0.00 0.00 0.00 96 1015.9
20260831082335 15 90 0.0 0.0 0.00 0.00 0.00 95 1015.9
20260831081827 15 90 0.0 0.0 0.00 0.00 0.00 95 1015.9